Location: Bretagne
(43.8474°N, 0.4650°W)
Time: 10:57:50
(UTC+00:00)

Cosmos 1953 - Pass Details

Date: 15 January 2026
Orbit: 474 x 489 km, 82.5° (Epoch: 10 February)

Event Time Altitude Azimuth Distance (km) Brightness Sun altitude
Rises 17:34:04 0° 356° (N) 2,584 5.6 -8.0°
Reaches altitude 10° 17:36:14 10° 1° (N) 1,697 4.6 -8.4°
Maximum altitude 17:39:52 52° 79° (E) 623 2.2 -9.0°
Drops below altitude 10° 17:43:28 10° 157° (SSE) 1,681 4.8 -9.6°
Sets 17:45:36 0° 162° (SSE) 2,556 5.8 -10.0°
